Weather History for Dublin, VA

Change the Weather History Date:

Wednesday, April 23, 2014

  Actual Average (KBCB) Record (KBCB)
Temperature  
Mean Temperature 52 °F 53 °F  
Max Temperature 61 °F 66 °F 85 °F (1985)
Min Temperature 42 °F 40 °F 20 °F (1982)
Degree Days  
Heating Degree Days 14 12  
Month to date heating degree days 353  
Since 1 July heating degree days 5128  
Cooling Degree Days 0 0  
Month to date cooling degree days 0  
Year to date cooling degree days 0  
Growing Degree Days 2 (Base 50)    
Moisture  
Dew Point 29 °F    
Average Humidity 41    
Maximum Humidity 65    
Minimum Humidity 25    
Precipitation  
Precipitation 0.00 in 0.12 in 1.45 in (1958)
Month to date precipitation 2.67  
Year to date precipitation 12.20  
Snow  
Snow 0.00 in - - ()
Month to date snowfall  
Since 1 July snowfall  
Snow Depth -    
Sea Level Pressure  
Sea Level Pressure 29.91 in    
Wind  
Wind Speed 10 mph (NW)    
Max Wind Speed 16 mph    
Max Gust Speed 23 mph    
Visibility 10 miles    
Events      
T = Trace of Precipitation, MM = Missing Value Source: NWS Daily Summary

Daily Weather History Graph

Daily Weather History Graph

Search for Another Location

Airport:

Trip Planner

Search our weather history database for the weather conditions in past years. The results will help you decide how hot, cold, wet, or windy it might be!

Date:

Astronomy

Apr. 23, 2014 Rise Set
Actual Time 6:37 AM EDT 8:04 PM EDT
Civil Twilight 6:10 AM EDT 8:32 PM EDT
Nautical Twilight 5:37 AM EDT 9:05 PM EDT
Astronomical Twilight 5:03 AM EDT 9:39 PM EDT
Moon 3:00 AM EDT (4/23) 2:19 PM EDT (4/23)
Length of Visible Light 14h 21m
Length of Day
13h 27m
Waning Crescent, 35% of the Moon is Illuminated
Apr 23
Waning Crescent
Apr 29
New
May 6
First Quarter
May 14
Full
May 21
Last Quarter

Hourly Weather History & Observations

Time (EDT) Temp. Windchill Dew Point Humidity Pressure Visibility Wind Dir Wind Speed Gust Speed Precip Events Conditions
12:15 AM 60.1 °F - 38.8 °F 45% 29.79 in 10.0 mi NW 13.8 mph 18.4 mph N/A   Mostly Cloudy
12:35 AM 59.4 °F - 36.5 °F 43% 29.79 in 10.0 mi WNW 11.5 mph 21.9 mph N/A   Scattered Clouds
12:55 AM 58.3 °F - 35.8 °F 43% 29.79 in 10.0 mi NW 9.2 mph - N/A   Clear
1:15 AM 57.4 °F - 33.6 °F 41% 29.81 in 10.0 mi NW 11.5 mph 18.4 mph N/A   Clear
1:35 AM 56.1 °F - 32.2 °F 40% 29.81 in 10.0 mi NW 10.4 mph 16.1 mph N/A   Clear
1:55 AM 54.9 °F - 31.6 °F 41% 29.81 in 10.0 mi NW 6.9 mph 17.3 mph N/A   Clear
2:15 AM 53.6 °F - 31.6 °F 43% 29.81 in 10.0 mi NW 8.1 mph - N/A   Clear
2:35 AM 52.5 °F - 30.9 °F 44% 29.81 in 10.0 mi NW 8.1 mph - N/A   Clear
2:55 AM 52.3 °F - 29.8 °F 42% 29.81 in 10.0 mi NW 9.2 mph - N/A   Clear
3:15 AM 51.8 °F - 29.3 °F 42% 29.81 in 10.0 mi NW 11.5 mph 18.4 mph N/A   Clear
3:35 AM 50.7 °F - 29.7 °F 44% 29.81 in 10.0 mi NW 10.4 mph 17.3 mph N/A   Clear
3:55 AM 50.2 °F - 29.8 °F 46% 29.81 in 10.0 mi NW 13.8 mph 18.4 mph N/A   Clear
4:15 AM 49.5 °F - 30.2 °F 48% 29.82 in 10.0 mi NW 8.1 mph 17.3 mph N/A   Clear
4:35 AM 48.2 °F - 30.7 °F 51% 29.82 in 10.0 mi NW 10.4 mph 16.1 mph N/A   Clear
4:55 AM 48.2 °F - 31.1 °F 52% 29.83 in 10.0 mi WNW 11.5 mph 17.3 mph N/A   Clear
5:15 AM 47.3 °F - 31.1 °F 53% 29.83 in 10.0 mi NW 11.5 mph 17.3 mph N/A   Clear
5:35 AM 46.4 °F 39.8 °F 31.5 °F 56% 29.84 in 10.0 mi WNW 16.1 mph - N/A   Clear
5:55 AM 45.9 °F 40.4 °F 31.6 °F 58% 29.84 in 10.0 mi NW 11.5 mph 18.4 mph N/A   Clear
6:15 AM 44.6 °F 38.1 °F 31.1 °F 59% 29.85 in 10.0 mi WNW 13.8 mph 20.7 mph N/A   Clear
6:35 AM 44.1 °F 38.1 °F 31.1 °F 60% 29.86 in 10.0 mi WNW 11.5 mph 17.3 mph N/A   Clear
6:55 AM 43.2 °F 37.4 °F 31.1 °F 62% 29.87 in 10.0 mi West 10.4 mph 16.1 mph N/A   Clear
7:15 AM 43.0 °F 36.8 °F 31.1 °F 63% 29.89 in 10.0 mi WNW 11.5 mph 17.3 mph N/A   Clear
7:35 AM 42.6 °F 35.2 °F 31.6 °F 65% 29.90 in 10.0 mi WNW 15.0 mph 20.7 mph N/A   Clear
7:55 AM 43.2 °F 36.6 °F 31.8 °F 64% 29.91 in 10.0 mi WNW 12.7 mph - N/A   Scattered Clouds
8:15 AM 44.1 °F 38.1 °F 31.8 °F 62% 29.91 in 10.0 mi NW 11.5 mph 17.3 mph N/A   Scattered Clouds
8:35 AM 44.6 °F 37.8 °F 30.7 °F 58% 29.91 in 10.0 mi WNW 15.0 mph 23.0 mph N/A   Clear
8:55 AM 45.5 °F 40.3 °F 30.6 °F 56% 29.92 in 10.0 mi WNW 10.4 mph 21.9 mph N/A   Clear
9:15 AM 46.4 °F 41.1 °F 30.4 °F 54% 29.92 in 10.0 mi WNW 11.5 mph 17.3 mph N/A   Clear
9:35 AM 47.3 °F - 31.1 °F 53% 29.92 in 10.0 mi WNW 12.7 mph 18.4 mph N/A   Clear
9:55 AM 48.4 °F - 30.6 °F 50% 29.93 in 10.0 mi West 12.7 mph 18.4 mph N/A   Clear
10:15 AM 49.5 °F - 29.7 °F 47% 29.93 in 10.0 mi NW 8.1 mph 18.4 mph N/A   Clear
10:35 AM 49.6 °F - 27.9 °F 43% 29.93 in 10.0 mi NW 12.7 mph 17.3 mph N/A   Clear
10:55 AM 51.1 °F - 28.6 °F 42% 29.93 in 10.0 mi NW 8.1 mph - N/A   Clear
11:15 AM 51.4 °F - 26.8 °F 38% 29.94 in 10.0 mi NW 9.2 mph 16.1 mph N/A   Clear
11:35 AM 52.7 °F - 27.3 °F 38% 29.94 in 10.0 mi NNW 8.1 mph 18.4 mph N/A   Clear
11:55 AM 53.6 °F - 26.2 °F 35% 29.94 in 10.0 mi North 8.1 mph - N/A   Clear
12:15 PM 54.5 °F - 25.9 °F 33% 29.94 in 10.0 mi NNW 10.4 mph 17.3 mph N/A   Clear
12:35 PM 54.7 °F - 26.6 °F 34% 29.94 in 10.0 mi NNW 6.9 mph - N/A   Clear
12:55 PM 55.8 °F - 26.6 °F 33% 29.93 in 10.0 mi NNW 8.1 mph - N/A   Clear
1:15 PM 56.3 °F - 24.6 °F 29% 29.93 in 10.0 mi NNW 8.1 mph - N/A   Clear
1:35 PM 57.6 °F - 25.7 °F 29% 29.93 in 10.0 mi WNW 9.2 mph 18.4 mph N/A   Clear
2:15 PM 58.8 °F - 26.6 °F 29% 29.93 in 10.0 mi NW 6.9 mph - N/A   Clear
2:35 PM 59.2 °F - 25.2 °F 27% 29.93 in 10.0 mi NNW 10.4 mph 17.3 mph N/A   Clear
2:55 PM 59.7 °F - 25.0 °F 26% 29.93 in 10.0 mi North 8.1 mph 17.3 mph N/A   Clear
3:15 PM 60.6 °F - 28.0 °F 29% 29.93 in 10.0 mi West 13.8 mph 18.4 mph N/A   Clear
3:55 PM 61.0 °F - 28.4 °F 29% 29.93 in 10.0 mi WNW 11.5 mph 19.6 mph N/A   Scattered Clouds
4:15 PM 61.0 °F - 26.8 °F 27% 29.93 in 10.0 mi North 8.1 mph - N/A   Scattered Clouds
4:35 PM 60.3 °F - 24.8 °F 26% 29.93 in 10.0 mi NW 10.4 mph 16.1 mph N/A   Clear
4:55 PM 60.3 °F - 24.8 °F 26% 29.93 in 10.0 mi NNW 10.4 mph 16.1 mph N/A   Clear
5:15 PM 60.1 °F - 24.8 °F 26% 29.93 in 10.0 mi NNW 8.1 mph - N/A   Clear
5:35 PM 59.5 °F - 23.9 °F 25% 29.93 in 10.0 mi North 8.1 mph 18.4 mph N/A   Clear
5:55 PM 59.9 °F - 25.0 °F 26% 29.94 in 10.0 mi North 9.2 mph - N/A   Clear
6:15 PM 59.4 °F - 25.3 °F 27% 29.94 in 10.0 mi NNW 10.4 mph 16.1 mph N/A   Clear
6:35 PM 59.2 °F - 25.0 °F 27% 29.94 in 10.0 mi North 9.2 mph - N/A   Clear
6:55 PM 58.3 °F - 24.8 °F 28% 29.95 in 10.0 mi NNW 8.1 mph 16.1 mph N/A   Clear
7:15 PM 57.6 °F - 24.4 °F 28% 29.96 in 10.0 mi NNW 6.9 mph - N/A   Clear
7:35 PM 56.5 °F - 24.8 °F 30% 29.96 in 10.0 mi NNW 5.8 mph - N/A   Clear
7:55 PM 55.4 °F - 24.8 °F 31% 29.98 in 10.0 mi North 6.9 mph - N/A   Clear
8:15 PM 54.5 °F - 24.8 °F 32% 29.99 in 10.0 mi North 4.6 mph - N/A   Clear
8:35 PM 52.9 °F - 25.7 °F 35% 30.00 in 10.0 mi North 4.6 mph - N/A   Clear
8:55 PM 52.2 °F - 26.4 °F 37% 30.01 in 10.0 mi North 5.8 mph - N/A   Clear
9:15 PM 51.8 °F - 26.6 °F 38% 30.02 in 10.0 mi North 5.8 mph - N/A   Clear
9:35 PM 51.4 °F - 26.6 °F 38% 30.03 in 10.0 mi North 5.8 mph - N/A   Clear
9:55 PM 51.3 °F - 27.1 °F 39% 30.03 in 10.0 mi North 6.9 mph - N/A   Clear
10:15 PM 50.0 °F - 27.7 °F 42% 30.03 in 10.0 mi North 6.9 mph - N/A   Clear
10:35 PM 49.1 °F - 28.2 °F 44% 30.04 in 10.0 mi NNW 4.6 mph - N/A   Clear
10:55 PM 49.6 °F - 28.0 °F 43% 30.04 in 10.0 mi North 4.6 mph - N/A   Clear
11:15 PM 49.3 °F - 28.2 °F 44% 30.05 in 10.0 mi Calm Calm - N/A   Clear
11:35 PM 47.3 °F - 29.3 °F 50% 30.05 in 10.0 mi Calm Calm - N/A   Clear
11:55 PM 47.5 °F - 29.1 °F 49% 30.06 in 10.0 mi Calm Calm - N/A   Clear